This is the latest recevied weather packets stored in our database for station/object HP1CDW-11. If no packets are shown the sender has not sent any weather packets the latest 10 day(s).
| Time | Temp. | Humidity | Pressure | Rain* | Wind** | Luminosity | Snow |
|---|---|---|---|---|---|---|---|
| 1788396349 | 32.22° C | 54% | 1009.1 hPa | - | - | - | - |
| 1788395748 | 32.22° C | 53% | 1009 hPa | - | - | - | - |
| 1788395148 | 32.22° C | 53% | 1008.9 hPa | - | - | - | - |
| 1788394548 | 32.22° C | 51% | 1008.8 hPa | - | - | - | - |
| 1788393948 | 32.22° C | 51% | 1008.8 hPa | - | - | - | - |
| 1788393347 | 32.22° C | 49% | 1008.7 hPa | - | - | - | - |
| 1788392747 | 32.22° C | 49% | 1008.7 hPa | - | - | - | - |
| 1788392147 | 32.78° C | 50% | 1008.6 hPa | - | - | - | - |
| 1788391671 | 32.78° C | 50% | 1008.6 hPa | - | - | - | - |
| 1788391070 | 32.78° C | 49% | 1008.7 hPa | - | - | - | - |
| 1788390470 | 32.78° C | 49% | 1008.6 hPa | - | - | - | - |
| 1788389870 | 32.78° C | 49% | 1008.5 hPa | - | - | - | - |
| 1788389270 | 32.78° C | 48% | 1008.5 hPa | - | - | - | - |
| 1788388669 | 32.78° C | 52% | 1008.6 hPa | - | - | - | - |
| 1788388069 | 32.78° C | 54% | 1008.7 hPa | - | - | - | - |
| 1788387469 | 32.78° C | 54% | 1008.6 hPa | - | - | - | - |
| 1788386868 | 32.78° C | 53% | 1008.4 hPa | - | - | - | - |
| 1788386268 | 32.78° C | 56% | 1008.5 hPa | - | - | - | - |
| 1788385668 | 32.78° C | 56% | 1008.5 hPa | - | - | - | - |
| 1788385067 | 32.78° C | 55% | 1008.3 hPa | - | - | - | - |
| 1788384467 | 32.78° C | 55% | 1008.3 hPa | - | - | - | - |
| 1788383867 | 32.78° C | 56% | 1008.3 hPa | - | - | - | - |
| 1788383266 | 32.78° C | 56% | 1008.3 hPa | - | - | - | - |
| 1788382666 | 32.78° C | 57% | 1008.4 hPa | - | - | - | - |
| 1788382066 | 32.78° C | 56% | 1008.6 hPa | - | - | - | - |
* Rain since midnight (hover to see other rain measurements)
** Current wind speed in m/s (hover to see current wind gust speed)